Weather History for Parsons, KS

Change the Weather History Date:

Friday, November 1, 2013

  Actual Average Record
Temperature  
Mean Temperature 52 °F -  
Max Temperature 68 °F 64 °F 80 °F (1950)
Min Temperature 39 °F 45 °F 17 °F (1993)
Degree Days  
Heating Degree Days 12    
Growing Degree Days 2 (Base 50)    
Moisture  
Dew Point 40 °F    
Average Humidity 71    
Maximum Humidity 93    
Minimum Humidity 37    
Precipitation  
Precipitation 0.00 in - - ()
Sea Level Pressure  
Sea Level Pressure 29.88 in    
Wind  
Wind Speed 4 mph (WNW)    
Max Wind Speed 18 mph    
Max Gust Speed 28 mph    
Visibility 10 miles    
Events      
Averages and records for this station are not official NWS values.
T = Trace of Precipitation, MM = Missing Value Source: NWS Daily Summary

Daily Weather History Graph

Daily Weather History Graph

Search for Another Location

Airport:

Trip Planner

Search our weather history database for the weather conditions in past years. The results will help you decide how hot, cold, wet, or windy it might be!

Date:

Astronomy

Nov. 01, 2013 Rise Set
Actual Time 7:46 AM CDT 6:23 PM CDT
Civil Twilight 7:19 AM CDT 6:50 PM CDT
Nautical Twilight 6:49 AM CDT 7:21 PM CDT
Astronomical Twilight 6:18 AM CDT 7:51 PM CDT
Moon 5:42 AM CDT (11/1) 5:15 PM CDT (11/1)
Length of Visible Light 11h 30m
Length of Day
10h 36m
Waning Crescent, 4% of the Moon is Illuminated
Nov 1
Waning Crescent
Nov 3
New
Nov 9
First Quarter
Nov 17
Full
Nov 25
Last Quarter

Hourly Weather History & Observations

Time (CDT) Temp. Dew Point Humidity Pressure Visibility Wind Dir Wind Speed Gust Speed Precip Events Conditions
12:52 AM 48.0 °F 42.1 °F 80% 29.75 in 10.0 mi SSW 5.8 mph - N/A   Clear
1:52 AM 46.9 °F 42.1 °F 83% 29.76 in 10.0 mi SSW 4.6 mph - N/A   Clear
2:52 AM 45.0 °F 39.9 °F 82% 29.77 in 10.0 mi Calm Calm - N/A   Clear
3:52 AM 42.1 °F 39.9 °F 92% 29.78 in 10.0 mi Calm Calm - N/A   Clear
4:52 AM 41.0 °F 37.9 °F 89% 29.79 in 10.0 mi Calm Calm - N/A   Clear
5:52 AM 41.0 °F 39.0 °F 93% 29.80 in 10.0 mi Calm Calm - N/A   Clear
6:52 AM 39.9 °F 37.9 °F 93% 29.82 in 10.0 mi Calm Calm - N/A   Clear
7:52 AM 39.0 °F 37.0 °F 93% 29.83 in 10.0 mi Calm Calm - N/A   Clear
8:52 AM 46.0 °F 44.1 °F 93% 29.85 in 10.0 mi Calm Calm - N/A   Clear
9:52 AM 52.0 °F 43.0 °F 71% 29.87 in 10.0 mi WSW 3.5 mph - N/A   Partly Cloudy
10:52 AM 57.9 °F 43.0 °F 58% 29.88 in 10.0 mi West 4.6 mph - N/A   Scattered Clouds
11:52 AM 61.0 °F 43.0 °F 52% 29.88 in 10.0 mi NW 6.9 mph - N/A   Overcast
12:52 PM 63.0 °F 41.0 °F 45% 29.88 in 10.0 mi NNW 9.2 mph - N/A   Mostly Cloudy
2:52 PM 66.9 °F 41.0 °F 39% 29.87 in 10.0 mi WNW 15.0 mph 19.6 mph N/A   Clear
3:52 PM 66.9 °F 39.9 °F 37% 29.87 in 10.0 mi WNW 13.8 mph 23.0 mph N/A   Mostly Cloudy
4:52 PM 63.0 °F 39.9 °F 43% 29.90 in 10.0 mi NW 18.4 mph 27.6 mph 0.00 in   Overcast
5:52 PM 60.1 °F 39.9 °F 47% 29.93 in 10.0 mi NW 9.2 mph 18.4 mph N/A   Clear
6:52 PM 52.0 °F 41.0 °F 66% 29.96 in 10.0 mi NW 3.5 mph - N/A   Clear
7:52 PM 46.9 °F 41.0 °F 80% 29.99 in 10.0 mi Calm Calm - N/A   Clear
8:52 PM 45.0 °F 39.9 °F 82% 30.01 in 10.0 mi Calm Calm - N/A   Clear
9:52 PM 46.9 °F 39.9 °F 77% 30.01 in 10.0 mi Calm Calm - N/A   Clear
10:52 PM 52.0 °F 39.0 °F 61% 30.04 in 10.0 mi NNW 8.1 mph - 0.00 in   Mostly Cloudy
11:52 PM 48.0 °F 39.0 °F 71% 30.05 in 10.0 mi NNW 6.9 mph - N/A   Clear